COSMOS 886 DEB, 19221

Orbit data source: Space-Track

COSMOS 886 DEB, 19221 is space debris in LEO originally from a launch on Mon, 27 Dec 1976 UTC launched from the Tyuratam Missile And Space Complex (TTMTR). Debris objects in space refer to the collection of defunct objects orbiting the Earth. Examples of debris include non-operational satellites, rocket bodies, and fragments generated from explosions, collisions, or faulty payload assembly.

Loading next visibility...
Identifier
19221, 1976-126CB
Orbit
LEO
Country
Flag of CISCIS
Related business
Manufacturer
Unknown
Mission
Spacecraft
Bus & Motor
Unknown
Mass
Unknown
Launch date (UTC)
1976-12-27 (49 years ago)
Launch vehicle
Unknown
Launch site
Tyuratam Missile And Space Complex (TTMTR)
Object type
Payload
Rocket body
Debris
Shape & HBR
Unknown shape, 0.1 m
Radar Cross Section
Medium (>0.1 m² and <1 m²)

Expand to show TLE details & history
Last TLE update: 16 hours ago

TLE from 16 hours ago
0 COSMOS 886 DEB
1 19221U 76126CB  26174.99451090  .00000031  00000-0  95632-4 0  9997
2 19221  65.8349  40.1852 0850476 151.8965 213.0797 12.74880641567094
Epoch: 2026-06-23T23:52Z
TLE epoch observation values (Epoch: 2026-06-23T23:52:05.741Z)
Latitude
-0.00005°
Longitude
130.00317°
Altitude
1,930.73 km
Speed
6.67 km/s
True Right ascension
02h 40m 44s
True Declination
0° 00' 00"
Sunlit
Object was in daylight at epoch
Visualization orbit readout
Latitude
Unknown
Longitude
Unknown
Altitude
Unknown
Speed
Unknown
Apparent Right ascension
Unknown
Apparent Declination
Unknown
Sunlit
N/A
Visualization observer readout
Local Sidereal Time
03:11:36
Azimuth
Unknown
Elevation
Unknown
Doppler factor
Unknown
Orbital elements
Apogee altitude
2,018.866 km
Perigee altitude
702.527 km
Semi-major axis
7,738.834 km
Eccentricity
0.08505
Inclination
65.8349°
RAAN
40.1852°
Arg. of periapsis
151.8965°
True anomaly
208.20257°
Mean anomaly
213.0797°
Eccentric anomaly
210.59926°
Mean motion
3.18809 °/min
Orbital period
112.92 mins
BSTAR
0.000095632
Loading maneuver chart data...
Computing Atmospheric mass density...

Documentation

Showing up to 5 results
|